Find GPS II-1

NORAD ID: 19802 Int'l Des: 1989-013 Owner: AFSD Country: US Constellation: GPS operational
MEOCIRCULAR

現在のビュー

3D地球を読み込み中...

About GPS II-1

GPS II-1 (NORAD 19802) is a GPS constellation satellite launched Feb 14, 1989 by AFSD of US. It operates in MEO, CIRCULAR orbit with a mass of 776.00 kg.

GPS II-1について

説明を読み込み中...

次回通過

Passes for default location (London). Set your location on the main map for personalized predictions.

高度履歴

Loading altitude history...

軌道要素

1 19802U 89013A 26166.24433333 -.00000023 00000-0 00000-0 0 9993
2 19802 55.0265 94.6967 0043679 250.8417 285.7913 1.85325459258239
Epoch: Jun 15, 2026 • Age: 16 hours

現在のステータス

高度 21518.2 km
速度 3.79 km/s
衛星直下点 -53.95°S, 116.66°E
打ち上げ日 Feb 14, 1989
運用期間 37.3 years
タイプ navigation

技術仕様

分類 Payload
質量 776.00 kg
乾燥質量 776.00 kg
総質量 1667.00 kg
長さ 2.40 m
直径 1.80 m
スパン 5.30 m
形状 Box + 2 Pan
製造者 RWISB
バスタイプ GPS II
フェーズステータス In Orbit
所有者/国 AFSD/US

Most Searched